Погода в Тикси

Хотите узнать прогноз погоды в Тикси? Тогда Вам сюда: Погода в Тикси

Поиск расширенной информации на нашем сайте:

Полезная информация:

Новости сайта



02.01.2020
Опубликован Долгосрочный прогноз погоды по городам России и ближнего зарубежья на январь 2020 года.
Карты: Прогноз на январь и февраль 2020 года, Сравнение прогнозируемой аномалии приземной температуры воздуха на январь 2020 года по разным моделям.




Погода в Тикси - сегодня

Время (UTC), дата Ветер
(°,м/с) 
Видим.   Явления Облачность Т
(°С)
Тd
(°С)
f(%) Тe
(°С)
Pmin
(гПа)
dP
(гПа)
Po
(мм)
O2
(г/м3)
Тmin Tmax R s Состояние
почвы
06 23.11.20 220 (ЮЗ) 20000 м    10/10 1000 м 
[Sc]
-13.6 -18.3 68 -18  1006.9  0.2  755  321           
09 23.11.20 280 (З) 20000 м    3/0 средняя 
[Ac trans]
-16.8 -21.2 69 -21  1009  2.1  756  326           
12 23.11.20 250 (З) 20000 м    3/0 верхняя 
[Ci fib]
-18.6 -22.4 72 -21  1009.9  0.9  757  329    -12.6       
15 23.11.20 280 (З) 20000 м    4/0 верхняя 
[Ci fib]
-20.6 -24 74 -23  1010.7  0.8  757  332           
18 23.11.20 270 (З) 20000 м    8/0 средняя, верхняя 
[Ac trans|Ci fib]
-19.9 -23.4 74 -23  1011.9  1.2  758  331           
21 23.11.20 280 (З) 4000 м  слаб. снег  10/0 средняя, верхняя 
[Ac und|Cs]
-17.4 -20.9 74 -22  1012.6  0.7  759  328           
00 24.11.20 300 (СЗ) 4000 м  слаб. снег  10/10 1000 м 
[Sc]
-16.6 -20.2 74 -24  1012.6  759  327  -20.9    0.0  неравномерный
сухой снег
100% 
18 24.11.20 350 (С) 6{10}  4000 м  слаб. снег  10/10 300 м 
[Ns]
-12 -14.5 82 -18  1016.3  0.6  762  322           
21 24.11.20 350 (С) 6{12}  20000 м  позёмок{снег}  10/10 600 м 
[Sc]
-12.3 -15.4 78 -18  1016.6  0.3  762  323           
00 25.11.20 350 (С) 6{10}  20000 м  позёмок{снег}  10/5 600 м средняя 
[Sc|Ac und]
-11.8 -14.9 78 -17  1017.7  1.1  763  322  -13    0.0  неравномерный
сухой снег
100% 
03 25.11.20 320 (СЗ) 8-11{13}  20000 м  снежные кристаллы  10/10 600 м 
[Sc]
-11.5 -14.9 76 -18  1018.6  0.9  763  322           
06 25.11.20 300 (СЗ) 7-10{13}  20000 м  снежные кристаллы  10/10 300 м 
[Sc]
-12.6 -15.6 78 -19  1019.7  1.1  764  324           
09 25.11.20 290 (З) 8-11{12}  4000 м  слаб. снег  10/10 300 м 
[Sc]
-12.9 -16.4 75 -20  1021.2  1.5  765  325           
12 25.11.20 280 (З) 8-10{14}  20000 м  позёмок{снег}  10/10 1000 м 
[Sc]
-15.4 -18.4 78 -23  1021.6  0.4  766  328    -11.4  0.0     
15 25.11.20 290 (З) 9-12{13}  20000 м  позёмок  8/3 1500 м средняя, верхняя 
[Sc|Ac trans|Ci fib]
-16.9 -20.5 74 -25  1021.6  766  330           
18 25.11.20 290 (З) 8-11{12}  20000 м  позёмок  8/3 600 м верхняя 
[Sc|Ci fib]
-16.7 -20.2 74 -25  1021.5  -0.1  765  330           
21 25.11.20 240 (ЮЗ) 5{11}  20000 м  позёмок  6/0 верхняя 
[Ci fib]
-16.9 -20.5 74 -23  1022.2  0.7  766  331           
00 26.11.20 270 (З) 7{12}  20000 м  позёмок  10/1 600 м средняя, верхняя 
[Sc|Ac trans|Ci fib]
-15.1 -18.6 75 -22  1022.4  0.2  766  328  -17.2      неравномерный
сухой снег
100% 
03 26.11.20 210 (ЮЗ) 20000 м    10/0 средняя, верхняя 
[Ac trans|Ci fib]
-14.8 -18.6 73 -18  1022.4  766  328           
06 26.11.20 280 (З) 8{11}  20000 м  позёмок  10/3 1000 м средняя, верхняя 
[Sc|Ac trans|Ci fib]
-14.9 -18.7 73 -22  1022.7  0.3  766  328           
09 26.11.20 280 (З) 7{12}  20000 м  позёмок  8/0 средняя, верхняя 
[Ac trans|Ci fib]
-14.5 -18.5 72 -21  1023.3  0.6  767  328           
12 26.11.20 300 (СЗ) 10-12{13}  20000 м  позёмок  6/0 средняя, верхняя 
[Ac trans|Ci fib]
-15 -18.6 74 -23  1023.5  0.2  767  329    -14       
15 26.11.20 280 (З) 6{13}  20000 м  позёмок  8/0 средняя, верхняя 
[Ac trans|Ci fib]
-15.5 -19.1 74 -22  1023.8  0.3  767  329           
18 26.11.20 290 (З) 7{12}  20000 м  позёмок  6/0 средняя, верхняя 
[Ac trans|Ci fib]
-16.5 -20.2 73 -24  1024.4  0.6  768  331           
21 26.11.20 290 (З) 20000 м  позёмок  ясно 
-16.9 -20.5 74 -24  1025.3  0.9  768  332           
Время (UTC), дата Ветер
(°,м/с) 
Видим.   Явления Облачность Т
(°С)
Тd
(°С)
f(%) Тe
(°С)
Pmin
(гПа)
dP
(гПа)
Po
(мм)
O2
(г/м3)
Тmin Tmax R s Состояние
почвы

Для получения пояснительной информации подведите курсор к названию столбца.

ПОГОДА в Тикси - архив

Всё, что Вы хотите узнать о погоде в Тикси - удобно и подробно!

Выберите нужную дату (начиная с 1 января 2019* года) и нажмите кнопку "Найти".
Будут отображены архивные сводки погоды по пункту Тикси, начиная с указанной даты.


Отображать данные в формате CSV (для использования в таблицах Excel)


Внимание! Наш архив погоды предназначен исключительно для личного некоммерческого использования в познавательных целях. Если Вам необходимы официальные справки о состоянии погоды (для производственных, юридических, коммерческих и т.п. целей), обращайтесь в органы Росгидромета.

*Примечание: данная дата относится к архиву по метеостанциям СССР (Россия, СНГ, Балтия).
Архив по метеостанциям Зарубежной Европы и Азии (кроме Китая) хранится 10 дней, по другим регионам земного шара (Китай, Африка, Америка, Австралия, Океания) - 1 день.

Тикси - район местоположения метеостанции


Название, широта, долгота, высота метеостанции:
Тикси (посёлок) 71.6°ш. 128.9°д. 7 м над ур. моря [Российская Федерация]

Дополнительная информация

В oтличие oт бoльшинства пoгoдных сайтoв мы публикуем пoдрoбную метеoинфoрмацию в детальнoм прoфессиoнальнoм фoрмате.

Характеристики температуры и влажнoсти вoздуха измеряются на высoте 2 м в тени вдали oт зданий и деревьев.
Скoрoсть ветра измеряется на высoте 10 м (на урoвне рoста челoвека скoрoсть ветра ниже в 1.5-2 раза). Если метеoстанция нахoдится в гoрoде или в лесу, тo скoрoсть ветра занижена на 2-4 м/с пo сравнению с oткрытым местoм. Скoрoсть ветра над акватoриями крупных рек и oзёр, а также на вершинах хoлмoв на 2-5 м/с выше, чем в oбычных услoвиях.
Атмoсфернoе давление в разных тoчках местнoсти мoжет значительнo oтличаться oт давления на метеoстанции, в зависимoсти oт услoвий рельефа (при пoдъёме на 10 м давление пoнижается примернo на 1 мм рт.ст.).